Showing default

GRACE-FO 2, 43477

Orbit data source: Space-Track

GRACE-FO 2, 43477 is an American payload satellite in LEO that was launched on Tue, 22 May 2018 UTC via an FALCON 9 launch vehicle from the Air Force Western Test Range (AFWTR). Payload-class satellites include a variety of spacecraft equipped with specific instruments for various scientific and technological missions. These include communications satellites like Starlink; space stations such as the ISS; scientific satellites like the Hubble; Earth observation satellites from companies like Planet Labs, Umbra, and HawkEye 360; GPS; miniature CubeSats for education and research; and military/defense satellites.

Loading next visibility...
Identifier
43477, 2018-047B
Orbit
LEO
Country
Flag of USUS
Related business
Manufacturer
ADS/Bremen
Mission
Operational Civil Science
Bus & Motor
FLEXBUS, N2 AOCS
Mass
600 kg wet, ~500 kg dry
Launch date (UTC)
2018-05-22 (8 years ago)
Launch vehicle
FALCON 9
Launch site
Air Force Western Test Range (AFWTR)
Object type
Payload
Rocket body
Debris
Shape & HBR
Half Hex Poly, 1.9 m
Radar Cross Section
5.603 m², Large (>1 m²)

Expand to show TLE details & history
Last TLE update: 2 days ago

TLE from 2 days ago
0 GRACE-FO 2
1 43477U 18047B   26171.41372071  .00003010  00000-0  78726-4 0  9995
2 43477  88.9917 197.5107 0013882  96.6066 263.6770 15.38283298450294
Epoch: 2026-06-20T09:55Z
TLE epoch observation values (Epoch: 2026-06-20T09:55:45.469Z)
Latitude
-0.00002°
Longitude
139.94255°
Altitude
455.463 km
Speed
7.639 km/s
True Right ascension
13h 10m 02s
True Declination
0° 00' 00"
Sunlit
Object was in daylight at epoch
Visualization orbit readout
Latitude
Unknown
Longitude
Unknown
Altitude
Unknown
Speed
Unknown
Apparent Right ascension
Unknown
Apparent Declination
Unknown
Sunlit
N/A
Visualization observer readout
Local Sidereal Time
21:43:10
Azimuth
Unknown
Elevation
Unknown
Doppler factor
Unknown
Orbital elements
Apogee altitude
457.445 km
Perigee altitude
438.493 km
Semi-major axis
6,826.106 km
Eccentricity
0.00139
Inclination
88.9917°
RAAN
197.5107°
Arg. of periapsis
96.6066°
True anomaly
263.51892°
Mean anomaly
263.677°
Eccentric anomaly
263.59796°
Mean motion
3.84843 °/min
Orbital period
93.54 mins
BSTAR
0.000078726
Loading maneuver chart data...
Computing Atmospheric mass density...
Loading historical data...
Loading historical data...
Loading historical data...
Loading historical data...
Loading historical data...
Loading historical data...
Loading historical data...

Documentation

Showing up to 5 results
|